Location: 01445 Radebeul, Deutschland
(51.1161°N, 13.6224°E)
Time: 23:26:13
(UTC+01:00)

Envisat - Visible Passes

Search period start: 22 February 2018 00:00
Search period end: 04 March 2018 00:00
Orbit: 764 x 766 km, 98.2° (Epoch: 22 February)

Date Brightness Start Highest point End Pass type
(mag) Time Alt. Az. Time Alt. Az. Time Alt. Az.
22 Feb 2.9 19:18:57 10° SSE 19:24:02 86° ENE 19:29:10 10° NNW visible
22 Feb 5.7 21:00:46 10° WSW 21:03:46 16° W 21:06:47 10° NW visible
23 Feb 3.3 18:42:36 10° SE 18:47:25 45° ENE 18:52:15 10° N visible
23 Feb 4.8 20:22:10 10° SSW 20:26:37 30° W 20:31:06 10° NNW visible
24 Feb 4.0 18:06:54 10° ESE 18:10:59 25° ENE 18:15:04 10° N visible
24 Feb 3.5 19:44:39 10° S 19:49:40 59° W 19:54:43 10° NNW visible
25 Feb 2.9 19:07:52 10° SSE 19:12:55 72° ENE 19:18:00 10° N visible
25 Feb 5.5 20:48:54 10° SW 20:52:29 19° W 20:56:05 10° NW visible
26 Feb 3.5 18:31:42 10° SE 18:36:21 38° ENE 18:41:01 10° N visible
26 Feb 4.4 20:10:43 10° SSW 20:15:23 37° W 20:20:06 10° NNW visible
27 Feb 3.2 19:33:26 10° S 19:38:30 73° WSW 19:43:36 10° NNW visible
27 Feb 5.9 21:16:46 10° WSW 21:18:27 11° W 21:20:09 10° WNW visible
28 Feb 3.0 18:56:49 10° SSE 19:01:48 59° ENE 19:06:49 10° N visible
28 Feb 5.2 20:37:12 10° SW 20:41:13 23° W 20:45:15 10° NW visible
01 Mar 3.8 18:20:51 10° ESE 18:25:17 32° ENE 18:29:45 10° N visible
01 Mar 4.1 19:59:19 10° S 20:04:11 45° W 20:09:04 10° NNW visible
02 Mar 3.0 19:22:16 10° SSE 19:27:21 88° WSW 19:32:29 10° NNW visible
02 Mar 5.8 21:04:25 10° WSW 21:07:08 14° W 21:09:52 10° NW visible
03 Mar 3.2 18:45:50 10° SE 18:50:42 49° ENE 18:55:37 10° N visible
03 Mar 4.9 20:25:38 10° SSW 20:29:57 28° W 20:34:20 10° NW visible
